Time,TemperatureF,DewpointF,PressureIn,WindDirection,WindDirectionDegrees,WindSpeedMPH,WindSpeedGustMPH,Humidity,HourlyPrecipIn,Conditions,Clouds,dailyrainin,SoftwareType,DateUTC
2013-02-15 00:00:00,44.6,41.0,30.07,NE,40,5.0,6.0,88,0.00,,,0.00,weatherlink.com 1.10,2013-02-15 05:00:00,
2013-02-15 00:15:00,45.2,42.0,30.07,NE,40,5.0,7.0,88,0.00,,,0.00,weatherlink.com 1.10,2013-02-15 05:15:00,
2013-02-15 00:30:00,45.5,42.0,30.07,NE,49,5.0,7.0,87,0.00,,,0.00,weatherlink.com 1.10,2013-02-15 05:30:00,
2013-02-15 00:45:00,45.7,42.0,30.07,NE,41,5.0,8.0,87,0.00,,,0.00,weatherlink.com 1.10,2013-02-15 05:45:00,
2013-02-15 01:00:00,45.5,42.0,30.08,NE,44,3.0,6.0,87,0.00,,,0.00,weatherlink.com 1.10,2013-02-15 06:00:00,
2013-02-15 01:15:00,45.5,42.0,30.08,NE,34,6.0,6.0,88,0.00,,,0.00,weatherlink.com 1.10,2013-02-15 06:15:00,
2013-02-15 01:30:00,45.9,42.0,30.08,NNE,33,7.0,8.0,86,0.00,,,0.00,weatherlink.com 1.10,2013-02-15 06:30:00,
2013-02-15 01:45:00,45.9,42.0,30.07,North,6,4.0,10.0,87,0.00,,,0.00,weatherlink.com 1.10,2013-02-15 06:45:00,
2013-02-15 02:00:00,46.0,42.0,30.07,NNE,29,13.0,13.0,87,0.00,,,0.00,weatherlink.com 1.10,2013-02-15 07:00:00,
2013-02-15 02:15:00,46.4,43.0,30.07,NNE,27,11.0,14.0,87,0.00,,,0.00,weatherlink.com 1.10,2013-02-15 07:15:00,
2013-02-15 02:30:00,46.5,43.0,30.07,NNE,18,12.0,14.0,87,0.00,,,0.00,weatherlink.com 1.10,2013-02-15 07:30:00,
2013-02-15 02:55:00,46.6,43.0,30.06,NNE,13,10.0,15.0,87,0.00,,,0.00,weatherlink.com 1.10,2013-02-15 07:55:00,
2013-02-15 03:14:00,46.7,43.0,30.05,NNE,15,6.0,15.0,86,0.00,,,0.00,weatherlink.com 1.10,2013-02-15 08:14:00,
2013-02-15 03:29:00,46.8,43.0,30.06,NNE,27,10.0,15.0,85,0.00,,,0.00,weatherlink.com 1.10,2013-02-15 08:29:00,
2013-02-15 03:44:00,46.8,42.0,30.07,NNE,30,9.0,15.0,84,0.00,,,0.00,weatherlink.com 1.10,2013-02-15 08:44:00,
2013-02-15 03:59:00,46.4,42.0,30.07,NNE,18,10.0,14.0,84,0.00,,,0.00,weatherlink.com 1.10,2013-02-15 08:59:00,
2013-02-15 04:14:00,-999.0,-99.9,30.08,North,-999,-999.0,-999.0,-999,0.00,,,0.00,weatherlink.com 1.10,2013-02-15 09:14:00,
2013-02-15 04:29:00,-999.0,-99.9,30.09,North,-999,-999.0,-999.0,-999,0.00,,,0.00,weatherlink.com 1.10,2013-02-15 09:29:00,
2013-02-15 04:44:00,-999.0,-99.9,30.08,North,-999,-999.0,-999.0,-999,0.00,,,0.00,weatherlink.com 1.10,2013-02-15 09:44:00,
2013-02-15 04:59:00,-999.0,-99.9,30.07,North,-999,-999.0,-999.0,-999,0.00,,,0.00,weatherlink.com 1.10,2013-02-15 09:59:00,
2013-02-15 05:14:00,-999.0,-99.9,30.08,North,-999,-999.0,-999.0,-999,0.00,,,0.00,weatherlink.com 1.10,2013-02-15 10:14:00,
2013-02-15 05:29:00,-999.0,-99.9,30.08,North,-999,-999.0,-999.0,-999,0.00,,,0.00,weatherlink.com 1.10,2013-02-15 10:29:00,
2013-02-15 05:44:00,-999.0,-99.9,30.08,North,-999,-999.0,-999.0,-999,0.00,,,0.00,weatherlink.com 1.10,2013-02-15 10:44:00,
2013-02-15 06:00:00,-999.0,-99.9,30.08,North,-999,-999.0,-999.0,-999,0.00,,,0.00,weatherlink.com 1.10,2013-02-15 11:00:00,
2013-02-15 06:15:00,-999.0,-99.9,30.08,North,-999,-999.0,-999.0,-999,0.00,,,0.00,weatherlink.com 1.10,2013-02-15 11:15:00,
2013-02-15 06:30:00,-999.0,-99.9,30.09,North,-999,-999.0,-999.0,-999,0.00,,,0.00,weatherlink.com 1.10,2013-02-15 11:30:00,
2013-02-15 06:45:00,-999.0,-99.9,30.09,North,-999,-999.0,-999.0,-999,0.00,,,0.00,weatherlink.com 1.10,2013-02-15 11:45:00,
2013-02-15 07:00:00,-999.0,-99.9,30.09,North,-999,-999.0,-999.0,-999,0.00,,,0.00,weatherlink.com 1.10,2013-02-15 12:00:00,
2013-02-15 07:15:00,-999.0,-99.9,30.09,North,-999,-999.0,-999.0,-999,0.00,,,0.00,weatherlink.com 1.10,2013-02-15 12:15:00,
2013-02-15 07:30:00,46.7,43.0,30.09,NE,37,6.0,11.0,85,0.00,,,0.00,weatherlink.com 1.10,2013-02-15 12:30:00,
2013-02-15 07:45:00,47.1,43.0,30.10,NE,34,7.0,11.0,84,0.00,,,0.00,weatherlink.com 1.10,2013-02-15 12:45:00,
2013-02-15 08:00:00,47.5,43.0,30.10,ENE,57,7.0,12.0,83,0.00,,,0.00,weatherlink.com 1.10,2013-02-15 13:00:00,
2013-02-15 08:15:00,47.8,43.0,30.10,NE,34,5.0,10.0,83,0.00,,,0.00,weatherlink.com 1.10,2013-02-15 13:15:00,
2013-02-15 08:30:00,48.0,43.0,30.10,NE,40,9.0,12.0,83,0.00,,,0.00,weatherlink.com 1.10,2013-02-15 13:30:00,
2013-02-15 08:45:00,48.2,43.0,30.11,NNE,30,8.0,12.0,83,0.00,,,0.00,weatherlink.com 1.10,2013-02-15 13:45:00,
2013-02-15 09:00:00,48.5,43.0,30.11,NNE,15,6.0,10.0,82,0.00,,,0.00,weatherlink.com 1.10,2013-02-15 14:00:00,
2013-02-15 09:15:00,48.7,43.0,30.12,NNE,19,4.0,10.0,81,0.00,,,0.00,weatherlink.com 1.10,2013-02-15 14:15:00,
2013-02-15 09:30:00,49.0,44.0,30.12,NE,44,4.0,9.0,82,0.00,,,0.00,weatherlink.com 1.10,2013-02-15 14:30:00,
2013-02-15 09:45:00,49.5,44.0,30.11,NNE,22,7.0,10.0,82,0.00,,,0.00,weatherlink.com 1.10,2013-02-15 14:45:00,
2013-02-15 10:00:00,49.7,44.0,30.11,NE,45,7.0,14.0,80,0.00,,,0.00,weatherlink.com 1.10,2013-02-15 15:00:00,
2013-02-15 10:15:00,49.3,44.0,30.10,NNE,32,8.0,12.0,82,0.00,,,0.00,weatherlink.com 1.10,2013-02-15 15:15:00,
2013-02-15 10:30:00,49.2,44.0,30.10,ENE,65,5.0,13.0,82,0.00,,,0.00,weatherlink.com 1.10,2013-02-15 15:30:00,
2013-02-15 10:45:00,49.7,44.0,30.10,NNE,12,6.0,13.0,81,0.00,,,0.00,weatherlink.com 1.10,2013-02-15 15:45:00,
2013-02-15 11:01:00,50.0,45.0,30.10,NNE,27,8.0,11.0,82,0.00,,,0.00,weatherlink.com 1.10,2013-02-15 16:01:00,
2013-02-15 11:15:00,50.2,45.0,30.10,NNE,32,5.0,11.0,81,0.00,,,0.00,weatherlink.com 1.10,2013-02-15 16:15:00,
2013-02-15 11:30:00,50.6,43.0,30.09,NNE,30,4.0,10.0,76,0.00,,,0.00,weatherlink.com 1.10,2013-02-15 16:30:00,
2013-02-15 11:45:00,50.1,44.0,30.09,North,4,8.0,11.0,78,0.00,,,0.00,weatherlink.com 1.10,2013-02-15 16:45:00,
2013-02-15 12:01:00,50.0,43.0,30.08,NNE,29,9.0,12.0,78,0.00,,,0.00,weatherlink.com 1.10,2013-02-15 17:01:00,
2013-02-15 12:15:00,51.0,44.0,30.08,NNE,27,9.0,10.0,78,0.00,,,0.00,weatherlink.com 1.10,2013-02-15 17:15:00,
2013-02-15 12:30:00,50.7,43.0,30.07,North,355,7.0,11.0,76,0.00,,,0.00,weatherlink.com 1.10,2013-02-15 17:30:00,
2013-02-15 12:45:00,51.7,44.0,30.06,NE,36,3.0,10.0,75,0.00,,,0.00,weatherlink.com 1.10,2013-02-15 17:45:00,
2013-02-15 13:00:00,51.6,44.0,30.06,NNE,23,5.0,12.0,76,0.00,,,0.00,weatherlink.com 1.10,2013-02-15 18:00:00,
2013-02-15 13:15:00,51.3,44.0,30.05,NE,52,8.0,11.0,76,0.00,,,0.00,weatherlink.com 1.10,2013-02-15 18:15:00,
2013-02-15 13:45:00,51.8,44.0,30.05,North,9,5.0,11.0,74,0.00,,,0.00,weatherlink.com 1.10,2013-02-15 18:45:00,
2013-02-15 14:00:00,51.9,44.0,30.04,NE,41,6.0,10.0,75,0.00,,,0.00,weatherlink.com 1.10,2013-02-15 19:00:00,
2013-02-15 14:15:00,52.0,44.0,30.04,NE,49,7.0,10.0,75,0.00,,,0.00,weatherlink.com 1.10,2013-02-15 19:15:00,
2013-02-15 14:30:00,51.9,43.0,30.04,NNE,27,5.0,10.0,72,0.00,,,0.00,weatherlink.com 1.10,2013-02-15 19:30:00,
2013-02-15 14:45:00,52.3,43.0,30.03,NE,50,9.0,10.0,70,0.00,,,0.00,weatherlink.com 1.10,2013-02-15 19:45:00,
2013-02-15 15:01:00,52.2,42.0,30.02,ENE,58,7.0,10.0,69,0.00,,,0.00,weatherlink.com 1.10,2013-02-15 20:01:00,
2013-02-15 15:16:00,53.0,43.0,30.02,NNE,19,4.0,6.0,70,0.00,,,0.00,weatherlink.com 1.10,2013-02-15 20:16:00,
2013-02-15 15:31:00,53.6,44.0,30.02,ENE,72,4.0,8.0,69,0.00,,,0.00,weatherlink.com 1.10,2013-02-15 20:31:00,
2013-02-15 15:46:00,53.7,43.0,30.01,ENE,68,6.0,8.0,68,0.00,,,0.00,weatherlink.com 1.10,2013-02-15 20:46:00,
2013-02-15 16:01:00,53.9,43.0,30.01,East,80,5.0,5.0,67,0.00,,,0.00,weatherlink.com 1.10,2013-02-15 21:01:00,
2013-02-15 16:16:00,54.2,43.0,30.01,East,100,4.0,5.0,65,0.00,,,0.00,weatherlink.com 1.10,2013-02-15 21:16:00,
2013-02-15 16:31:00,54.1,42.0,30.00,NE,37,7.0,8.0,65,0.00,,,0.00,weatherlink.com 1.10,2013-02-15 21:31:00,
2013-02-15 16:46:00,53.8,43.0,30.01,NE,50,4.0,5.0,67,0.00,,,0.00,weatherlink.com 1.10,2013-02-15 21:46:00,
2013-02-15 17:01:00,53.4,43.0,30.00,ENE,77,2.0,4.0,67,0.00,,,0.00,weatherlink.com 1.10,2013-02-15 22:01:00,
2013-02-15 17:16:00,53.0,43.0,30.00,ENE,58,1.0,3.0,69,0.00,,,0.00,weatherlink.com 1.10,2013-02-15 22:16:00,
2013-02-15 17:31:00,52.5,44.0,30.00,East,80,1.0,3.0,72,0.00,,,0.00,weatherlink.com 1.10,2013-02-15 22:31:00,
2013-02-15 17:46:00,50.9,43.0,30.00,ENE,68,2.0,2.0,75,0.00,,,0.00,weatherlink.com 1.10,2013-02-15 22:46:00,
2013-02-15 18:01:00,50.0,43.0,30.00,East,79,2.0,2.0,78,0.00,,,0.00,weatherlink.com 1.10,2013-02-15 23:01:00,
2013-02-15 18:16:00,49.6,43.0,30.00,ESE,114,2.0,2.0,79,0.00,,,0.00,weatherlink.com 1.10,2013-02-15 23:16:00,
2013-02-15 18:31:00,49.3,43.0,30.00,East,95,2.0,2.0,80,0.00,,,0.00,weatherlink.com 1.10,2013-02-15 23:31:00,
2013-02-15 18:46:00,48.9,43.0,30.00,ENE,62,3.0,3.0,81,0.00,,,0.00,weatherlink.com 1.10,2013-02-15 23:46:00,
2013-02-15 19:01:00,48.1,43.0,30.00,ENE,75,4.0,4.0,82,0.00,,,0.00,weatherlink.com 1.10,2013-02-16 00:01:00,
2013-02-15 19:16:00,48.3,43.0,29.99,ENE,77,3.0,3.0,83,0.00,,,0.00,weatherlink.com 1.10,2013-02-16 00:16:00,
2013-02-15 19:31:00,48.3,43.0,29.99,ENE,60,2.0,3.0,83,0.00,,,0.00,weatherlink.com 1.10,2013-02-16 00:31:00,
2013-02-15 19:46:00,48.2,44.0,30.00,NE,44,3.0,3.0,84,0.00,,,0.00,weatherlink.com 1.10,2013-02-16 00:46:00,
2013-02-15 20:01:00,48.8,44.0,29.99,ENE,65,1.0,3.0,83,0.00,,,0.00,weatherlink.com 1.10,2013-02-16 01:01:00,
2013-02-15 20:16:00,48.6,44.0,29.99,NE,54,2.0,3.0,84,0.00,,,0.00,weatherlink.com 1.10,2013-02-16 01:16:00,
2013-02-15 20:31:00,48.5,44.0,30.00,ENE,61,1.0,3.0,85,0.00,,,0.00,weatherlink.com 1.10,2013-02-16 01:31:00,
2013-02-15 20:46:00,48.6,44.0,30.00,ENE,76,1.0,1.0,85,0.00,,,0.00,weatherlink.com 1.10,2013-02-16 01:46:00,
2013-02-15 21:01:00,48.6,44.0,30.00,ENE,65,2.0,2.0,85,0.00,,,0.00,weatherlink.com 1.10,2013-02-16 02:01:00,
2013-02-15 21:16:00,48.8,44.0,30.00,NE,45,1.0,2.0,84,0.00,,,0.00,weatherlink.com 1.10,2013-02-16 02:16:00,
2013-02-15 21:31:00,48.8,45.0,30.00,NE,40,2.0,2.0,86,0.00,,,0.00,weatherlink.com 1.10,2013-02-16 02:31:00,
2013-02-15 21:46:00,48.6,45.0,30.00,NNE,32,1.0,2.0,88,0.00,,,0.00,weatherlink.com 1.10,2013-02-16 02:46:00,
2013-02-15 22:01:00,48.7,45.0,30.00,NNE,29,3.0,3.0,88,0.00,,,0.00,weatherlink.com 1.10,2013-02-16 03:01:00,
2013-02-15 22:16:00,48.3,45.0,29.99,NE,34,1.0,2.0,89,0.00,,,0.00,weatherlink.com 1.10,2013-02-16 03:16:00,
2013-02-15 22:31:00,48.0,45.0,29.99,NE,41,3.0,3.0,90,0.00,,,0.00,weatherlink.com 1.10,2013-02-16 03:31:00,
2013-02-15 22:46:00,48.0,46.0,29.99,NE,34,4.0,4.0,91,0.00,,,0.00,weatherlink.com 1.10,2013-02-16 03:46:00,
2013-02-15 23:01:00,48.0,46.0,29.99,NNE,30,3.0,4.0,91,0.00,,,0.00,weatherlink.com 1.10,2013-02-16 04:01:00,
2013-02-15 23:16:00,48.2,46.0,29.98,NNE,22,3.0,4.0,90,0.00,,,0.00,weatherlink.com 1.10,2013-02-16 04:16:00,
2013-02-15 23:32:00,47.9,45.0,29.98,NNW,338,4.0,4.0,90,0.00,,,0.00,weatherlink.com 1.10,2013-02-16 04:32:00,
2013-02-15 23:46:00,48.1,45.0,29.98,NNW,339,4.0,6.0,88,0.00,,,0.00,weatherlink.com 1.10,2013-02-16 04:46:00,